Tracking 19485 objects as of 22-Jan-2019
HD Live streaming from Space Station
objects crossing your sky now

COSMOS 1801

Track COSMOS 1801 now!
10-day predictions
COSMOS 1801 is classified as:


NORAD ID: 17145
Int'l Code: 1986-092H
Perigee: 1,392.5 km
Apogee: 1,477.6 km
Inclination: 74.0 °
Period: 114.4 minutes
Semi major axis: 7806 km
RCS: 0.7115 m2 (medium)
Launch date: November 21, 1986
Source: Commonwealth of Independent States (former USSR) (CIS)
Launch site: PLESETSK MISSILE AND SPACE COMPLEX (PKMTR)
aabbcc
Your satellite tracking list
Your tracking list is empty




NASA's NSSDC Master Catalog

Two Line Element Set (TLE):
1 17145U 86092H   19021.60039907 -.00000005  00000-0  66686-4 0  9992
2 17145  74.0132  52.7148 0054529 171.8904 357.5319 12.58805049478430
Source of the keplerian elements: AFSPC